Hourly Data Report for May 16, 2012

All times are specified in Local Standard Time (LST). Add 1 hour to adjust for Daylight Saving Time where and when it is observed.

HAMILTON A
ONTARIO

43°10'25.000" N
79°56'06.000" W
237.70 m
6153193
71263
YHM

Download Data

Hourly Data (May 2012)
Hourly Data Report for May 16, 2012
Temp Definition
°C
Dew Point Temp Definition
°C
Rel Hum Definition
%
Wind Dir Definition
10's deg

Wind Spd Definition
km/h
Visibility Definition
km
Stn Press Definition
kPa
Hmdx Definition


Wind Chill Definition


Weather Definition


TIME
00:00 Legend Double Dagger 13.6 7.9 68 19 12 10.0 98.24     LegendNANA
01:00 Legend Double Dagger 14.9 8.7 66 20 12 10.0 98.20     Mostly Cloudy
02:00 Legend Double Dagger 15.8 7.6 58 27 17 10.0 98.28     LegendNANA
03:00 Legend Double Dagger 15.5 7.6 59 33 21 10.0 98.24     LegendNANA
04:00 Legend Double Dagger 13.8 7.8 67   0 10.0 98.19     Mostly Cloudy
05:00 Legend Double Dagger 12.1 8.2 77 21 8 10.0 98.22     LegendNANA
06:00 Legend Double Dagger 13.3 8.8 74 20 12 10.0 98.23     LegendNANA
07:00 Legend Double Dagger 14.3 9.4 72 23 14 10.0 98.38     Mostly Cloudy
08:00 Legend Double Dagger 15.6 10.2 70 26 19 10.0 98.32     LegendNANA
09:00 Legend Double Dagger 13.6 12.2 91 28 18 9.7 98.40     Rain Showers,Fog
10:00 Legend Double Dagger 11.3 8.9 85 29 17 10.0 98.52     Mostly Cloudy
11:00 Legend Double Dagger 12.8 6.7 66 29 27 10.0 98.56     LegendNANA
12:00 Legend Double Dagger 14.1 6.0 58 30 30 10.0 98.57     LegendNANA
13:00 Legend Double Dagger 14.0 5.4 56 32 26 10.0 98.60     Mainly Clear
14:00 Legend Double Dagger 13.5 4.2 53 28 31 10.0 98.65     LegendNANA
15:00 Legend Double Dagger 13.9 3.7 50 31 27 10.0 98.66     LegendNANA
16:00 Legend Double Dagger 13.5 2.8 48 30 26 10.0 98.71     Mainly Clear
17:00 Legend Double Dagger 14.0 1.0 41 31 28 10.0 98.78     LegendNANA
18:00 Legend Double Dagger 12.6 -1.3 38 31 29 10.0 98.85     LegendNANA
19:00 Legend Double Dagger 11.5 -1.3 41 32 16 10.0 98.90     Clear
20:00 Legend Double Dagger 10.0 -1.4 45 29 10 10.0 98.98     LegendNANA
21:00 Legend Double Dagger 9.5 -1.2 47 30 8 10.0 99.05     LegendNANA
22:00 Legend Double Dagger 8.5 -0.8 52 31 13 10.0 99.10     Clear
23:00 Legend Double Dagger 7.3 -0.6 57 28 10 10.0 99.15     LegendNANA

Notes on Data Quality.

Legend

  • E = Estimated
  • M = Missing
  • NA = Not Available
  • ‡ = Partner data that is not subject to review by the National Climate Archives
Date modified: